STARLINK-2109 (47388 NORAD) Tracking and Keplerian Element Data

This shows tracking and keplerian element data for the satellite.

Feedback or suggestion? Click here.




ElementValue
Catalog47388
NameSTARLINK-2109
Epoch Orbit1443
Epoch Day106.25002315
Epoch Year2021
RAAN170.265
Inclination53.0444
Eccentricity9.62E-05
Argument of Perigee93.5213
Mean Anonmoly32.3223
Mean Motion15.06403506
Decay Rate-0.00015504
L11 47388U 21005AR 21106.25002315 -.00015504 00000-0 -10241-2 0 9993
L22 47388 53.0444 170.2650 0000962 93.5213 32.3223 15.06403506 14430

Live tracking and technical data element details for STARLINK-2109 (NORAD 47388). STARLINK-2109 can be tracked NOW for your location showing map with azimuth and elevation plus other details from your city location.

Track the satellite on the map from your city or location and see movement details for azimuth, elevation, latitude, longitude, range, height, and movement on the map or in text.







IsCatalogInMostPopularTable: catalog: 47388, numindb: 16
Update: records affected: 1



GetName: 47388 STARLINK-2109

Hit Count: updated at: Fri, 16 Apr 2021 12:18:37 GMT